Hourly Weather Otjiwarongo

Today, 30 July, Friday

Time Temperature Precipitation Wind Pressure Humidity
00:00 +10°C° 0 mm 4 mps 664 mmHg 33%
01:00 +8°C° 0 mm 5 mps 664 mmHg 34%
02:00 +8°C° 0 mm 4 mps 664 mmHg 35%
03:00 +7°C° 0 mm 4 mps 664 mmHg 37%
04:00 +6°C° 0 mm 4 mps 664 mmHg 39%
05:00 +6°C° 0 mm 4 mps 665 mmHg 39%
06:00 +7°C° 0 mm 4 mps 665 mmHg 39%
07:00 +7°C° 0 mm 4 mps 666 mmHg 39%
08:00 +10°C° 0 mm 5 mps 667 mmHg 32%
09:00 +15°C° 0 mm 6 mps 668 mmHg 26%
10:00 +20°C° 0 mm 7 mps 668 mmHg 19%
11:00 +21°C° 0 mm 7 mps 668 mmHg 17%
12:00 +22°C° 0 mm 7 mps 667 mmHg 15%
13:00 +23°C° 0 mm 7 mps 667 mmHg 13%
14:00 +23°C° 0 mm 7 mps 667 mmHg 13%
15:00 +23°C° 0 mm 6 mps 666 mmHg 13%
16:00 +23°C° 0 mm 6 mps 666 mmHg 13%
17:00 +20°C° 0 mm 6 mps 666 mmHg 15%
18:00 +17°C° 0 mm 5 mps 665 mmHg 18%
19:00 +14°C° 0 mm 4 mps 665 mmHg 21%
20:00 +13°C° 0 mm 4 mps 665 mmHg 22%
21:00 +12°C° 0 mm 4 mps 666 mmHg 23%
22:00 +12°C° 0 mm 4 mps 666 mmHg 24%
23:00 +11°C° 0 mm 4 mps 665 mmHg 26%

Tomorrow, 31 July, Saturday

Time Temperature Precipitation Wind Pressure Humidity
00:00 +10°C° 0 mm 4 mps 665 mmHg 27%
01:00 +10°C° 0 mm 4 mps 665 mmHg 28%
02:00 +8°C° 0 mm 4 mps 665 mmHg 28%
03:00 +8°C° 0 mm 4 mps 665 mmHg 29%
04:00 +7°C° 0 mm 4 mps 665 mmHg 29%
05:00 +7°C° 0 mm 5 mps 665 mmHg 31%
06:00 +7°C° 0 mm 5 mps 665 mmHg 32%
07:00 +7°C° 0 mm 5 mps 666 mmHg 33%
08:00 +11°C° 0 mm 6 mps 667 mmHg 29%
09:00 +15°C° 0 mm 7 mps 667 mmHg 25%
10:00 +20°C° 0 mm 8 mps 668 mmHg 22%
11:00 +21°C° 0 mm 8 mps 668 mmHg 19%
12:00 +22°C° 0 mm 7 mps 667 mmHg 16%
13:00 +24°C° 0 mm 7 mps 667 mmHg 13%
14:00 +24°C° 0 mm 7 mps 666 mmHg 14%
15:00 +23°C° 0 mm 7 mps 666 mmHg 14%
16:00 +23°C° 0 mm 7 mps 666 mmHg 14%
17:00 +21°C° 0 mm 6 mps 666 mmHg 18%
18:00 +17°C° 0 mm 5 mps 666 mmHg 22%
19:00 +15°C° 0 mm 5 mps 666 mmHg 25%
20:00 +14°C° 0 mm 5 mps 665 mmHg 27%
21:00 +13°C° 0 mm 5 mps 665 mmHg 29%
22:00 +12°C° 0 mm 5 mps 665 mmHg 31%
23:00 +10°C° 0 mm 5 mps 665 mmHg 33%

Day after tomorrow, 1 August, Sunday

Time Temperature Precipitation Wind Pressure Humidity
00:00 +10°C° 0 mm 5 mps 665 mmHg 35%
01:00 +10°C° 0 mm 4 mps 664 mmHg 36%
02:00 +8°C° 0 mm 4 mps 664 mmHg 38%
03:00 +8°C° 0 mm 4 mps 664 mmHg 40%
04:00 +7°C° 0 mm 4 mps 664 mmHg 42%
05:00 +7°C° 0 mm 4 mps 664 mmHg 43%
06:00 +7°C° 0 mm 4 mps 665 mmHg 44%
07:00 +7°C° 0 mm 4 mps 665 mmHg 44%
08:00 +12°C° 0 mm 4 mps 666 mmHg 38%
09:00 +15°C° 0 mm 4 mps 666 mmHg 31%
10:00 +20°C° 0 mm 5 mps 667 mmHg 24%
11:00 +21°C° 0 mm 5 mps 667 mmHg 20%
12:00 +23°C° 0 mm 5 mps 666 mmHg 17%
13:00 +25°C° 0 mm 5 mps 666 mmHg 13%
14:00 +25°C° 0 mm 5 mps 665 mmHg 12%
15:00 +25°C° 0 mm 5 mps 665 mmHg 12%
16:00 +25°C° 0 mm 5 mps 664 mmHg 11%
17:00 +21°C° 0 mm 4 mps 664 mmHg 14%
18:00 +19°C° 0 mm 4 mps 664 mmHg 17%
19:00 +15°C° 0 mm 4 mps 664 mmHg 20%
20:00 +14°C° 0 mm 4 mps 664 mmHg 22%
21:00 +13°C° 0 mm 4 mps 664 mmHg 24%
22:00 +13°C° 0 mm 4 mps 664 mmHg 26%
23:00 +12°C° 0 mm 4 mps 664 mmHg 28%

2 August, Monday

Time Temperature Precipitation Wind Pressure Humidity
00:00 +12°C° 0 mm 4 mps 663 mmHg 31%
01:00 +11°C° 0 mm 4 mps 663 mmHg 33%
02:00 +11°C° 0 mm 4 mps 663 mmHg 34%
03:00 +10°C° 0 mm 4 mps 663 mmHg 35%
04:00 +10°C° 0 mm 4 mps 662 mmHg 36%
05:00 +10°C° 0 mm 4 mps 663 mmHg 36%
06:00 +10°C° 0 mm 4 mps 663 mmHg 36%
07:00 +10°C° 0 mm 4 mps 663 mmHg 36%
08:00 +14°C° 0 mm 4 mps 664 mmHg 30%
09:00 +17°C° 0 mm 5 mps 665 mmHg 24%
10:00 +22°C° 0 mm 5 mps 666 mmHg 18%
11:00 +23°C° 0 mm 5 mps 665 mmHg 16%
12:00 +25°C° 0 mm 5 mps 664 mmHg 14%
13:00 +26°C° 0 mm 4 mps 664 mmHg 12%
14:00 +26°C° 0 mm 4 mps 663 mmHg 11%
15:00 +26°C° 0 mm 4 mps 663 mmHg 11%
16:00 +26°C° 0 mm 4 mps 663 mmHg 10%
17:00 +23°C° 0 mm 4 mps 662 mmHg 12%
18:00 +20°C° 0 mm 4 mps 662 mmHg 14%
19:00 +17°C° 0 mm 4 mps 662 mmHg 16%
20:00 +17°C° 0 mm 4 mps 662 mmHg 17%
21:00 +15°C° 0 mm 5 mps 662 mmHg 18%
22:00 +14°C° 0 mm 5 mps 662 mmHg 19%
23:00 +13°C° 0 mm 5 mps 662 mmHg 21%

3 August, Tuesday

Time Temperature Precipitation Wind Pressure Humidity
00:00 +13°C° 0 mm 5 mps 662 mmHg 22%
01:00 +11°C° 0 mm 6 mps 661 mmHg 24%
02:00 +11°C° 0 mm 6 mps 661 mmHg 25%
03:00 +11°C° 0 mm 6 mps 661 mmHg 27%
04:00 +10°C° 0 mm 6 mps 660 mmHg 28%
05:00 +10°C° 0 mm 6 mps 661 mmHg 28%
06:00 +10°C° 0 mm 6 mps 661 mmHg 28%
07:00 +10°C° 0 mm 5 mps 662 mmHg 28%
08:00 +15°C° 0 mm 6 mps 663 mmHg 23%
09:00 +20°C° 0 mm 7 mps 663 mmHg 18%
10:00 +24°C° 0 mm 8 mps 664 mmHg 12%
11:00 +26°C° 0 mm 7 mps 664 mmHg 12%
12:00 +27°C° 0 mm 6 mps 663 mmHg 12%
13:00 +28°C° 0 mm 5 mps 663 mmHg 11%
14:00 +28°C° 0 mm 5 mps 663 mmHg 11%
15:00 +28°C° 0 mm 4 mps 662 mmHg 11%
16:00 +28°C° 0 mm 4 mps 662 mmHg 11%
17:00 +26°C° 0 mm 4 mps 662 mmHg 14%
18:00 +22°C° 0 mm 4 mps 662 mmHg 16%
19:00 +19°C° 0 mm 4 mps 661 mmHg 18%
20:00 +17°C° 0 mm 5 mps 661 mmHg 19%
21:00 +17°C° 0 mm 5 mps 661 mmHg 20%
22:00 +16°C° 0 mm 5 mps 661 mmHg 21%
23:00 +15°C° 0 mm 5 mps 661 mmHg 22%

4 August, Wednesday

Time Temperature Precipitation Wind Pressure Humidity
00:00 +14°C° 0 mm 5 mps 661 mmHg 24%
01:00 +13°C° 0 mm 5 mps 661 mmHg 26%
02:00 +13°C° 0 mm 5 mps 661 mmHg 26%
03:00 +12°C° 0 mm 5 mps 661 mmHg 27%
04:00 +12°C° 0 mm 5 mps 661 mmHg 28%
05:00 +12°C° 0 mm 5 mps 661 mmHg 28%
06:00 +12°C° 0 mm 5 mps 662 mmHg 28%
07:00 +12°C° 0 mm 5 mps 662 mmHg 28%
08:00 +16°C° 0 mm 6 mps 663 mmHg 24%
09:00 +20°C° 0 mm 7 mps 664 mmHg 20%
10:00 +23°C° 0 mm 8 mps 664 mmHg 17%
11:00 +26°C° 0 mm 7 mps 664 mmHg 15%
12:00 +28°C° 0 mm 6 mps 663 mmHg 14%
13:00 +29°C° 0 mm 6 mps 663 mmHg 12%
14:00 +30°C° 0 mm 5 mps 662 mmHg 12%
15:00 +30°C° 0 mm 5 mps 662 mmHg 12%
16:00 +30°C° 0 mm 4 mps 662 mmHg 12%
17:00 +27°C° 0 mm 4 mps 661 mmHg 15%
18:00 +23°C° 0 mm 4 mps 661 mmHg 17%
19:00 +20°C° 0 mm 3 mps 661 mmHg 20%
20:00 +19°C° 0 mm 4 mps 661 mmHg 22%
21:00 +18°C° 0 mm 4 mps 661 mmHg 23%
22:00 +17°C° 0 mm 4 mps 661 mmHg 24%
23:00 +15°C° 0 mm 4 mps 661 mmHg 26%
Show more